Regional Weather Roundup
Issued by NWS Wakefield, VA

Home | Current Version | Previous Version | Graphics & Text | Print | Product List | Glossary On
Versions: 1 2 3 4 5 6 7 8 9 10 11 12 13 14 15 16 17 18 19 20 21 22 23 24 25 26 27 28 29 30 31 32 33 34 35 36 37 38 39 40 41 42 43 44 45 46 47
420
ASUS41 KAKQ 081215
RWRAKQ

REGIONAL WEATHER ROUNDUP
NATIONAL WEATHER SERVICE WAKEFIELD VA
700 AM EST MON FEB 08 2016

Note: "fair" indicates few or no clouds below 12,000 feet with no
significant weather and/or obstructions to visibility. * = Denotes
station may not report precipitation (e.g., rain,snow,etc.),
thunder or fog.

VAZ042-051-052>054-056-081300-
NORTHERN VIRGINIA

CITY           SKY/WX    TMP DP  RH WIND       PRES   REMARKS
WASH NATIONAL  MOCLDY    35  21  56 N10       29.81R
DULLES         FAIR      27  20  75 N3        29.81R
FORT BELVOIR   FAIR      33  21  61 NW7       29.81R
QUANTICO       FAIR      35  21  56 N6        29.83R
FREDERICKSBRG* FAIR      29  24  79 NW5       29.81S
STAFFORD*      FAIR      29  21  71 NW7       29.85S
WARRENTON      FAIR      22  21  97 CALM      29.81S
CULPEPER*      FAIR      23  20  89 CALM      29.82R
MANASSAS*      CLEAR     41  21  45 CALM      29.82R
LEESBURG*      FAIR      32  27  80 N3        29.82S
WINCHESTER     FAIR      23  21  93 CALM      29.81R
FRONT ROYAL*   FAIR      28  23  80 S3        29.79S
LURAY*         FAIR      23  23 100 CALM      29.80S
$$

VAZ048-049-060>072-079>083-081300-
CENTRAL AND SOUTH CENTRAL VIRGINIA

CITY           SKY/WX    TMP DP  RH WIND       PRES   REMARKS
RICHMOND       FAIR      31  21  66 N8        29.80R
CHESTERFIELD*  FAIR      28  10  47 NW7       29.82R
PETERSBURG*    FAIR      32  20  61 W6        29.82R
HANOVER        FAIR      31  20  63 NW3       29.82R
TAPPAHANNOCK*  FAIR      35  22  60 W5        29.79R
QUINTON*       FAIR      32  22  65 NW5       29.80R
CHARLOTTSVILLE FAIR      27  22  81 W3        29.79S
GORDONSVILLE*  FAIR      25  23  91 CALM      29.80R
ORANGE*        FAIR      28  23  80 CALM      29.83R
LOUISA*        FAIR      27  21  80 CALM      29.80R
BUMPASS*       FAIR      29  23  77 CALM      29.81R
FARMVILLE*     FAIR      26  26  99 CALM      29.80S
CREWE*         FAIR      28  25  89 CALM      29.80R
FORT PICKETT*  FAIR      28  23  81 CALM      29.81S
CHASE CITY*    FAIR      26  25  94 CALM      29.81S
CLARKSVILLE*   FAIR      28  27  93 CALM      29.82S
SOUTH HILL*    FAIR      31  23  71 N5        29.87R
LAWRENCEVILLE* FAIR      28  23  81 CALM      29.81R
EMPORIA*       FAIR      32  23  69 W3        29.83S
$$

VAZ088>098-081300-
SOUTHEAST VIRGINIA

CITY           SKY/WX    TMP DP  RH WIND       PRES   REMARKS
NORFOLK        FAIR      39  25  57 NW8       29.74S
VIRGINIA BEACH FAIR      41  29  62 N12       29.73R
NORFOLK NAVAL  FAIR      38  25  59 NW13      29.77R
WEST POINT*    FAIR      33  22  65 W6        29.80S
SALUDA*        FAIR      36  27  69 NW6       29.76S
NEWPORT NEWS   FAIR      35  24  64 NW8       29.77R
LANGLEY AFB    FAIR      36  25  63 NW8       29.75R
FORT EUSTIS    FAIR      37  22  54 NW12      29.76R
WILLIAMSBURG*  FAIR      37  25  60 NW6       29.79R
HR EXEC AP*    FAIR      34  23  64 NW5       29.79R
FRANKLIN*      FAIR      32  23  69 W7        29.81R
US460-WAKEFLD  FAIR      32  22  66 VRB3      29.80R
$$

VAZ020-022-025-037-045-081300-
WEST CENTRAL AND SOUTHWEST VIRGINIA

CITY           SKY/WX    TMP DP  RH WIND       PRES   REMARKS
STAUNTON*      FAIR      27  24  91 CALM      29.79F
WAYNESBORO*    FAIR      24  21  88 CALM      29.76F
HOT SPRINGS VA FAIR      32  20  61 CALM      29.67S
LYNCHBURG      FAIR      24  21  88 CALM      29.80S
DANVILLE       FAIR      26  22  84 CALM      29.81S
SOUTH BOSTON*  FAIR      26  24  92 CALM      29.82S
MARTINSVILLE   FAIR      19  18  95 CALM      29.83R
ROANOKE        FAIR      27  23  85 NE5       29.80R
BLACKSBURG     FAIR      24  22  94 CALM      29.77F
DUBLIN*        FAIR      28  24  84 CALM      29.76S
MARION*        MOCLDY    32  22  67 CALM      29.73F
HILLSVILLE*    FAIR      32  22  66 S6        29.72F
RICHLANDS*     FAIR      35  17  46 SW3       29.68F
WISE*          FAIR      32  18  55 S5        29.69S
ABINGDON*      FAIR      30  22  73 N3        29.72F
$$

MDZ021>025-VAZ099-100-081300-
SOUTHERN MARYLAND AND THE DELMARVA PENINSULA

CITY           SKY/WX    TMP DP  RH WIND       PRES   REMARKS
PATUXENT RIVER PTCLDY    35  24  64 NW9       29.77R
BAY BRIDGE APT   N/A     36  27  69 CALM      29.78S
LEONARDTOWN    CLEAR     34  23  64 CALM      29.79R
DOVER          CLOUDY    37  28  71 NW12      29.74R
GEORGETOWN     CLOUDY    39  28  64 N8        29.73R
EASTON         PTCLDY    36  27  69 N5        29.80R
CAMBRIDGE      CLOUDY    36  27  69 N8        29.75S
SALISBURY      CLOUDY    38  29  70 NW10      29.73R
OCEAN CITY     CLOUDY    40  33  76 N15G25    29.71R
WALLOPS ISLAND CLOUDY    40  31  70 NW10G18   29.72R
ACCOMACK*      CLOUDY    37  30  75 N9        29.73R
$$

NCZ012>017-030>032-081300-
NORTH CENTRAL AND EASTERN NORTH CAROLINA

CITY           SKY/WX    TMP DP  RH WIND       PRES   REMARKS
ROANOKE RAPIDS FAIR      32  23  69 CALM      29.82S
RALEIGH        PTCLDY    28  23  81 CALM      29.83S
ELIZABETH CITY CLEAR     34  26  72 W12       29.76R
AHOSKIE*       CLEAR     32  23  68 CALM      29.82R
EDENTON*       CLEAR     37  26  65 NW8       29.81R
CURRITUCK*     CLEAR     39  30  72 CALM      29.74S
KILL DEVIL HLS PTCLDY    39  32  75 NW9       29.71S
MANTEO         MOCLDY    40  33  76 NW12G21   29.73S
CAPE HATTERAS  MOCLDY    41  31  67 NW14G23   29.73R
TARBORO*       FAIR      34  26  72 NW3       29.84S
GOLDSBORO      CLEAR     32  28  86 W3        29.83S
WASHINGTON     CLEAR     34  24  66 CALM      29.83R
GREENVILLE     CLEAR     36  27  69 NW3       29.86R
NEW BERN       CLEAR     35  24  64 W9        29.84R
WILMINGTON     CLEAR     33  28  81 SW3       29.87R
$$

VAZ048-081300-
ELSEWHERE

CITY           SKY/WX    TMP DP  RH WIND       PRES   REMARKS
HARRISBURG PA  CLOUDY    27  22  81 NW3       29.81R
BALTIMORE      MOCLDY    34  20  56 NW5       29.79R
ANNAPOLIS      CLOUDY    37  24  59 N7        29.78S
ANDREWS AFB    FAIR      33  21  61 NW9       29.78R
PHILADELPHIA   CLOUDY    38  26  62 N10       29.77R
HENDERSON NC   CLEAR     28  23  83 SW3       29.82R
GREENSBORO     PTCLDY    28  22  78 SW5       29.80S
ROCKY MOUNT    CLEAR     30  24  78 W3        29.84R
$$

VAZ100-081300-
MARINE

STATION/POSITION TIME  TEMP    WIND        PRES    WAVE   SWELL
                       AIR SEA DIR/SP/G            HT/PER HT/PER
                 (UTC) (F)     (DEG/KT/KT) (MB)    (FT/S) (FT/S)
BRANDYWINE LGT   1100   39      30/ 21/ 25 1005.7R
CAPE MAY NJ      1100   39 42   20/  8/ 12 1005.1S
LEWES DE         1100   40 40   10/ 17/ 20 1005.7R
15NM E FENWICK I 1150   41 44              1004.3R  14/ 9
OCEAN-CITY-INLET 1100   41 41   20/ 18/ 27 1004.3R
WACHAPREAGUE VA  1100   39 42  320/  3/  7 1005.7R
THOMAS POINT MD  1200   38 38  360/ 11/ 12 1009.0R
GOOSES REEF MD   1200   39 39   10/ 14/ 16 1009.2R   2/ 3
COVE POINT MD    1100   38      10/ 13/ 18 1008.4R
SOLOMONS ISLAND  1100   38 41  340/  7/  9   N/A
BISHOPS HEAD MD  1100   36 39  320/  9/ 11 1006.1R
POTOMAC MD       1200   38 40  330/ 10/ 12 1007.1R   1/ 2
CAMBRIDGE MD     1100   38 40  320/ 11/ 13 1006.7R
LEWISETTA VA     1100   39 42  350/ 10/ 14 1007.5R
RAPPAHANNOCK LGT 1100          330/ 20/ 23 1006.6R
STINGRAY PT      1200   38 42  320/ 12/ 14 1007.6R   2/ 3
YORK RVR RNG VA  1100   39     320/ 13/ 15 1006.7R
YORKTOWN VA      1100   39 42  320/ 14/ 17 1007.4R
JAMESTOWN VA     1200   37 44  320/ 10/ 12   N/A     0
DOMINION TERM VA 1100   40     340/ 12/ 16 1007.4R
KIPTOPEKE VA     1100      42  340/ 18/ 23   N/A
CHES BAY BRIDGE  1100   41 43  310/ 19/ 24 1006.5R
CAPE HENRY VA    1100   41     330/ 25/ 29   N/A
CHESAPEAKE LGHT  1100   41     330/ 25/ 28 1006.1R
WILLOUBY STN VA  1100   40     320/ 12/ 13 1027.5S
CAPE HENRY BUOY  1128      45                N/A    10/10   5/12
1ST LANDING BUOY 1200      43                N/A     7/ 7
CAPE CHARLES BUO 1126      44                N/A    10/11  10/11
OFFSHORE WE BUOY 1121      48                N/A    12/11  10/11
64NM E OF VA BCH 1150   47 53  360/ 27/ 35 1002.3R  19/11  16/11
DUCK PIER NC     1100   41 52  320/ 18/ 26 1005.4R
44100 DUCK FRF   1124      47                N/A    14/11   8/11
44056 DUCK FRF   1111      44                N/A    12/12   8/12
OREGON INLET NC  1100   42 45  300/ 18/ 23 1005.6R
HATTERAS NC      1100   42 46  300/ 29/ 32 1006.3R
DIAMOND SHLS NC  1150   45 70  320/ 23/ 29 1005.7R  13/16  10/16
$$




USA.gov is the U.S. government's official web portal to all federal, state and local government web resources and services.